This is the latest recevied weather packets stored in our database for station/object K1RFS. If no packets are shown the sender has not sent any weather packets the latest 10 day(s).
| Time | Temp. | Humidity | Pressure | Rain* | Wind** | Luminosity | Snow |
|---|---|---|---|---|---|---|---|
| 1787765682 | 30.56° C | 31% | 1009 hPa | 0 mm | - | 49 W/m² | - |
| 1787765378 | 30.56° C | 31% | 1009.2 hPa | 0 mm | - | 46 W/m² | - |
| 1787765077 | 30° C | 29% | 1009.2 hPa | 0 mm | - | 44 W/m² | - |
| 1787764771 | 30° C | 30% | 1009 hPa | 0 mm | - | 43 W/m² | - |
| 1787764462 | 29.44° C | 30% | 1009.3 hPa | 0 mm | - | 42 W/m² | - |
| 1787764156 | 28.89° C | 32% | 1009.3 hPa | 0 mm | - | 42 W/m² | - |
| 1787763852 | 28.89° C | 32% | 1009.4 hPa | 0 mm | - | 41 W/m² | - |
| 1787763547 | 29.44° C | 32% | 1009.3 hPa | 0 mm | - | 41 W/m² | - |
| 1787763242 | 29.44° C | 32% | 1009.2 hPa | 0 mm | - | 41 W/m² | - |
| 1787762938 | 29.44° C | 31% | 1009.2 hPa | 0 mm | - | 41 W/m² | - |
| 1787762637 | 29.44° C | 31% | 1009 hPa | 0 mm | - | 44 W/m² | - |
| 1787762335 | 28.89° C | 31% | 1009 hPa | 0 mm | - | 41 W/m² | - |
| 1787762034 | 28.89° C | 32% | 1009 hPa | 0 mm | - | 41 W/m² | - |
| 1787761734 | 28.89° C | 33% | 1009 hPa | 0 mm | - | 41 W/m² | - |
| 1787761429 | 28.89° C | 33% | 1008.9 hPa | 0 mm | - | 40 W/m² | - |
| 1787761124 | 28.33° C | 33% | 1008.8 hPa | 0 mm | - | 39 W/m² | - |
| 1787760823 | 28.33° C | 33% | 1008.8 hPa | 0 mm | - | 38 W/m² | - |
| 1787760522 | 28.33° C | 33% | 1008.8 hPa | 0 mm | - | 38 W/m² | - |
| 1787760222 | 27.78° C | 34% | 1008.8 hPa | 0 mm | - | 39 W/m² | - |
| 1787759918 | 27.22° C | 34% | 1008.6 hPa | 0 mm | - | 38 W/m² | - |
| 1787759613 | 26.67° C | 35% | 1008.6 hPa | 0 mm | - | 38 W/m² | - |
| 1787759309 | 26.11° C | 37% | 1008.6 hPa | 0 mm | - | 37 W/m² | - |
| 1787759004 | 26.11° C | 39% | 1008.7 hPa | 0 mm | - | 37 W/m² | - |
| 1787758704 | 25.56° C | 39% | 1008.6 hPa | 0 mm | - | 37 W/m² | - |
| 1787758400 | 25.56° C | 39% | 1008.9 hPa | 0 mm | - | 37 W/m² | - |
* Rain latest hour (hover to see other rain measurements)
** Current wind speed in m/s (hover to see current wind gust speed)